Weather History for Gainesville, FL

Change the Weather History Date:

Thursday, July 4, 2013

  Actual Average Record
Temperature  
Mean Temperature 81 °F 81 °F  
Max Temperature 90 °F 91 °F 99 °F (1997)
Min Temperature 72 °F 71 °F 64 °F (1975)
Degree Days  
Heating Degree Days 0 0  
Month to date heating degree days 0 0  
Since 1 June heating degree days 0 0  
Since 1 July heating degree days 0 0  
Cooling Degree Days 16 16  
Month to date cooling degree days 62 64  
Year to date cooling degree days 1082 1013  
Since 1 June cooling degree days 550 503  
Growing Degree Days 31 (Base 50)    
Moisture  
Dew Point 72 °F    
Average Humidity 77    
Maximum Humidity 94    
Minimum Humidity 59    
Precipitation  
Precipitation 0.23 in 0.22 in 1.84 in (1944)
Month to date precipitation 2.66 0.86  
Year to date precipitation 19.91 23.97  
Snow  
Snow 0.00 in 0.00 in 0.00 in ()
Month to date snowfall 0.0 0.0  
Since 1 June snowfall 0.0 0.0  
Since 1 July snowfall 0.0 0.0  
Snow Depth 0.00 in    
Sea Level Pressure  
Sea Level Pressure 30.13 in    
Wind  
Wind Speed 7 mph (SE)    
Max Wind Speed 20 mph    
Max Gust Speed 25 mph    
Visibility 9 miles    
Events Rain    
T = Trace of Precipitation, MM = Missing Value Source: NWS Daily Summary

Daily Weather History Graph

Daily Weather History Graph

Search for Another Location

Airport:

Trip Planner

Search our weather history database for the weather conditions in past years. The results will help you decide how hot, cold, wet, or windy it might be!

Date:

Astronomy

Jul. 04, 2013 Rise Set
Actual Time 6:33 AM EDT 8:33 PM EDT
Civil Twilight 6:06 AM EDT 9:00 PM EDT
Nautical Twilight 5:33 AM EDT 9:33 PM EDT
Astronomical Twilight 4:58 AM EDT 10:08 PM EDT
Moon 3:43 AM EDT (7/4) 5:41 PM EDT (7/4)
Length of Visible Light 14h 54m
Length of Day
13h 59m
Waning Crescent, 11% of the Moon is Illuminated
Jul 4
Waning Crescent
Jul 8
New
Jul 15
First Quarter
Jul 22
Full
Jul 29
Last Quarter

Hourly Weather History & Observations

Time (EDT) Temp. Heat Index Dew Point Humidity Pressure Visibility Wind Dir Wind Speed Gust Speed Precip Events Conditions
12:53 AM 75.0 °F - 72.0 °F 90% 30.13 in 10.0 mi ESE 5.8 mph - N/A   Scattered Clouds
1:53 AM 73.9 °F - 72.0 °F 93% 30.12 in 10.0 mi SE 6.9 mph - N/A   Scattered Clouds
2:53 AM 73.9 °F - 71.1 °F 91% 30.11 in 10.0 mi ESE 6.9 mph - N/A   Partly Cloudy
3:07 AM 73.4 °F - 71.6 °F 94% 30.11 in 10.0 mi ESE 6.9 mph - N/A   Partly Cloudy
3:53 AM 73.0 °F - 71.1 °F 93% 30.10 in 10.0 mi SE 3.5 mph - N/A   Clear
4:53 AM 73.0 °F - 71.1 °F 93% 30.10 in 10.0 mi ESE 4.6 mph - N/A   Scattered Clouds
5:53 AM 73.0 °F - 71.1 °F 93% 30.11 in 10.0 mi East 5.8 mph - N/A   Scattered Clouds
6:40 AM 73.4 °F - 71.6 °F 94% 30.11 in 7.0 mi East 5.8 mph - N/A   Mostly Cloudy
6:53 AM 73.0 °F - 71.1 °F 93% 30.11 in 7.0 mi ESE 6.9 mph - N/A   Overcast
7:53 AM 75.9 °F - 73.0 °F 91% 30.12 in 9.0 mi ESE 6.9 mph - N/A   Scattered Clouds
8:23 AM 75.2 °F - 73.4 °F 94% 30.13 in 10.0 mi ESE 8.1 mph - N/A   Mostly Cloudy
8:53 AM 79.0 °F - 73.9 °F 84% 30.13 in 10.0 mi SE 9.2 mph - N/A   Mostly Cloudy
9:16 AM 78.8 °F - 73.4 °F 83% 30.14 in 10.0 mi ESE 12.7 mph - N/A   Mostly Cloudy
9:30 AM 80.6 °F 85.4 °F 73.4 °F 79% 30.14 in 10.0 mi SE 11.5 mph - N/A   Mostly Cloudy
9:39 AM 80.6 °F 85.4 °F 73.4 °F 79% 30.14 in 10.0 mi SE 10.4 mph - N/A   Mostly Cloudy
9:53 AM 81.0 °F 86.7 °F 75.0 °F 82% 30.13 in 10.0 mi SE 9.2 mph - N/A   Mostly Cloudy
10:11 AM 82.4 °F 89.5 °F 75.2 °F 79% 30.15 in 10.0 mi SE 10.4 mph - N/A   Overcast
10:53 AM 84.0 °F 91.2 °F 73.9 °F 72% 30.14 in 10.0 mi SSE 13.8 mph - N/A   Overcast
11:21 AM 84.2 °F 90.9 °F 73.4 °F 70% 30.15 in 10.0 mi SE 16.1 mph 25.3 mph N/A   Mostly Cloudy
11:53 AM 86.0 °F 93.8 °F 73.9 °F 67% 30.14 in 10.0 mi SSE 12.7 mph 23.0 mph 0.00 in Rain Light Rain
12:53 PM 86.0 °F 93.0 °F 73.0 °F 65% 30.12 in 10.0 mi SSE 10.4 mph - 0.00 in   Mostly Cloudy
1:53 PM 89.1 °F 97.0 °F 73.0 °F 59% 30.11 in 10.0 mi SSE 12.7 mph 20.7 mph 0.00 in   Partly Cloudy
2:53 PM 90.0 °F 97.9 °F 73.0 °F 57% 30.09 in 10.0 mi SE 12.7 mph 21.9 mph N/A   Partly Cloudy
3:53 PM 86.0 °F 92.2 °F 72.0 °F 63% 30.09 in 10.0 mi North - - N/A   Scattered Clouds
4:53 PM 82.9 °F 88.8 °F 73.0 °F 72% 30.11 in 10.0 mi North - - N/A   Partly Cloudy
5:03 PM 78.8 °F - 71.6 °F 78% 30.13 in 1.8 mi North - - 0.02 in Rain Heavy Rain
5:12 PM 78.8 °F - 69.8 °F 74% 30.11 in 3.0 mi North - - 0.10 in Rain Light Rain
5:53 PM 77.0 °F - 72.0 °F 84% 30.11 in 10.0 mi SW 4.6 mph - 0.10 in   Clear
6:53 PM 78.1 °F - 71.1 °F 79% 30.12 in 10.0 mi West 5.8 mph - N/A   Mostly Cloudy
7:53 PM 78.1 °F - 70.0 °F 76% 30.15 in 10.0 mi Calm Calm - N/A   Mostly Cloudy
8:02 PM 75.2 °F - 69.8 °F 83% 30.17 in 1.5 mi North - - 0.00 in Rain Heavy Rain
8:06 PM 73.4 °F - 69.8 °F 88% 30.18 in 4.0 mi WSW 10.4 mph 24.2 mph 0.11 in Rain Heavy Rain
8:53 PM 72.0 °F - 69.1 °F 91% 30.17 in 10.0 mi Calm Calm - 0.13 in   Scattered Clouds
9:53 PM 73.0 °F - 70.0 °F 90% 30.17 in 9.0 mi Calm Calm - 0.00 in   Mostly Cloudy
10:53 PM 73.0 °F - 70.0 °F 90% 30.17 in 10.0 mi Calm Calm - 0.00 in   Mostly Cloudy
11:53 PM 73.0 °F - 70.0 °F 90% 30.16 in 9.0 mi Calm Calm - N/A   Clear